Location: Marcé
(47.5801°N, 0.3280°W)
Time: 20:01:45
(UTC+01:00)

Transit 2A - All Passes

Search period start: 30 November 2021 00:00
Search period end: 10 December 2021 00:00
Orbit: 591 x 967 km, 66.7° (Epoch: 30 November)

Date Brightness Start Highest point End Pass type
(mag) Time Alt. Az. Time Alt. Az. Time Alt. Az.
30 Nov - 01:54:52 10° SSW 02:00:23 61° ESE 02:06:26 10° NE night (unlit)
30 Nov - 03:38:48 10° WSW 03:44:04 34° NW 03:49:43 10° NNE visible
30 Nov - 05:25:54 10° NW 05:29:20 15° NNW 05:32:51 10° NNE visible
30 Nov - 07:12:07 10° NNW 07:15:23 14° NNE 07:18:40 10° NE visible
30 Nov - 08:55:21 10° NNW 09:00:51 29° NE 09:06:16 10° E daylight
30 Nov - 10:38:25 10° NW 10:44:52 83° WSW 10:51:03 10° SSE daylight
30 Nov - 12:23:19 10° WNW 12:27:12 17° WSW 12:30:59 10° SW daylight
01 Dec - 01:20:59 10° S 01:26:16 44° ESE 01:32:02 10° NE night (unlit)
01 Dec - 03:04:08 10° WSW 03:09:36 42° NW 03:15:32 10° NNE visible
01 Dec - 04:50:47 10° WNW 04:54:37 17° NNW 04:58:34 10° NNE visible
01 Dec - 06:37:39 10° NNW 06:40:37 13° N 06:43:36 10° NE visible
01 Dec - 08:21:11 10° NNW 08:26:17 24° NNE 08:31:21 10° E daylight
01 Dec - 10:04:10 10° NNW 10:10:37 77° NE 10:16:49 10° SE daylight
01 Dec - 11:48:23 10° NW 11:53:16 24° WSW 11:58:00 10° SSW daylight
02 Dec - 00:47:19 10° S 00:52:14 32° ESE 00:57:33 10° NE night (unlit)
02 Dec - 02:29:35 10° SW 02:35:12 55° NW 02:41:21 10° NNE visible
02 Dec - 04:15:42 10° WNW 04:19:56 19° NNW 04:24:20 10° NNE visible
02 Dec - 06:03:01 10° NNW 06:05:50 13° N 06:08:40 10° NNE visible
02 Dec - 07:47:00 10° NNW 07:51:40 21° NNE 07:56:19 10° ENE visible
02 Dec - 09:29:57 10° NNW 09:36:18 59° NE 09:42:26 10° SE daylight
02 Dec - 11:13:44 10° NW 11:19:17 32° WSW 11:24:38 10° S daylight
03 Dec - 00:13:55 10° SSE 00:18:16 23° ESE 00:22:54 10° NE night (unlit)
03 Dec - 01:55:11 10° SW 02:00:53 72° NW 02:07:08 10° NNE night (unlit)
03 Dec - 03:40:40 10° W 03:45:18 22° NNW 03:50:09 10° NNE visible
03 Dec - 05:28:11 10° NNW 05:31:02 13° N 05:33:56 10° NNE visible
03 Dec - 07:12:48 10° NNW 07:17:01 18° NNE 07:21:13 10° ENE visible
03 Dec - 08:55:46 10° NNW 09:01:56 46° NE 09:07:55 10° ESE daylight
03 Dec - 10:39:14 10° NW 10:45:14 44° WSW 10:50:59 10° S daylight
03 Dec - 23:40:55 10° SE 23:44:21 16° ESE 23:47:56 10° ENE night (unlit)
04 Dec - 01:20:55 10° SSW 01:26:37 87° ESE 01:32:52 10° NE night (unlit)
04 Dec - 03:05:44 10° W 03:10:43 27° NW 03:15:59 10° NNE visible
04 Dec - 04:53:11 10° NW 04:56:16 14° N 04:59:23 10° NNE visible
04 Dec - 06:38:33 10° NNW 06:42:18 16° NNE 06:46:04 10° NE visible
04 Dec - 08:21:35 10° NNW 08:27:30 37° NE 08:33:15 10° ESE daylight
04 Dec - 10:04:51 10° NW 10:11:07 59° WSW 10:17:08 10° SSE daylight
04 Dec - 11:51:46 10° W 11:53:04 11° W 11:54:21 10° WSW daylight
04 Dec - 23:08:54 10° ESE 23:10:30 11° E 23:12:07 10° E night (unlit)
05 Dec - 00:46:49 10° SSW 00:52:26 65° ESE 00:58:34 10° NE night (unlit)
05 Dec - 02:30:55 10° WSW 02:36:11 33° NW 02:41:49 10° NNE visible
05 Dec - 04:18:06 10° NW 04:21:30 15° NNW 04:24:59 10° NNE visible
05 Dec - 06:04:12 10° NNW 06:07:34 14° NNE 06:10:55 10° NE visible
05 Dec - 07:47:25 10° NNW 07:53:00 30° NE 07:58:27 10° E visible
05 Dec - 09:30:32 10° NW 09:36:57 79° WSW 09:43:06 10° SSE daylight
05 Dec - 11:15:38 10° WNW 11:19:13 16° WSW 11:22:42 10° SW daylight
06 Dec - 00:12:54 10° S 00:18:19 47° ESE 00:24:12 10° NE night (unlit)
06 Dec - 01:56:12 10° WSW 02:01:43 41° NW 02:07:39 10° NNE night (unlit)
06 Dec - 03:42:59 10° WNW 03:46:46 17° NNW 03:50:41 10° NNE visible
06 Dec - 05:29:45 10° NNW 05:32:47 14° N 05:35:51 10° NE visible
06 Dec - 07:13:15 10° NNW 07:18:26 25° NNE 07:23:33 10° E visible
06 Dec - 08:56:16 10° NNW 09:02:43 80° NE 09:08:53 10° SE daylight
06 Dec - 10:40:36 10° WNW 10:45:18 22° WSW 10:49:50 10° SSW daylight
06 Dec - 23:39:11 10° S 23:44:15 34° ESE 23:49:44 10° NE night (unlit)
07 Dec - 01:21:38 10° SW 01:27:18 52° NW 01:33:27 10° NNE night (unlit)
07 Dec - 03:07:52 10° WNW 03:12:05 19° NNW 03:16:27 10° NNE visible
07 Dec - 04:55:09 10° NNW 04:58:00 13° N 05:00:54 10° NNE visible
07 Dec - 06:39:04 10° NNW 06:43:50 21° NNE 06:48:33 10° ENE visible
07 Dec - 08:22:02 10° NNW 08:28:25 62° NE 08:34:32 10° SE daylight
07 Dec - 10:05:54 10° NW 10:11:20 30° WSW 10:16:32 10° SSW daylight
07 Dec - 23:05:44 10° SSE 23:10:16 25° ESE 23:15:07 10° NE night (unlit)
08 Dec - 00:47:13 10° SW 00:52:58 68° NW 00:59:15 10° NNE night (unlit)
08 Dec - 02:32:50 10° WNW 02:37:27 22° NNW 02:42:15 10° NNE visible
08 Dec - 04:20:21 10° NNW 04:23:13 13° N 04:26:07 10° NNE visible
08 Dec - 06:04:52 10° NNW 06:09:10 18° NNE 06:13:27 10° ENE visible
08 Dec - 07:47:51 10° NNW 07:54:03 48° NE 08:00:02 10° ESE visible
08 Dec - 09:31:23 10° NW 09:37:18 41° WSW 09:42:55 10° S daylight
08 Dec - 22:32:38 10° SE 22:36:21 18° ESE 22:40:15 10° ENE night (unlit)
09 Dec - 00:12:55 10° SSW 00:18:41 89° NW 00:24:59 10° NE night (unlit)
09 Dec - 01:57:52 10° W 02:02:51 26° NNW 02:08:05 10° NNE night (unlit)
09 Dec - 03:45:23 10° NW 03:48:26 14° N 03:51:33 10° NNE visible
09 Dec - 05:30:38 10° NNW 05:34:28 16° NNE 05:38:19 10° NE visible
09 Dec - 07:13:40 10° NNW 07:19:37 38° NE 07:25:23 10° ESE visible
09 Dec - 08:56:58 10° NW 09:03:12 56° WSW 09:09:07 10° SSE daylight
09 Dec - 22:00:15 10° ESE 22:02:29 12° E 22:04:46 10° ENE night (unlit)
09 Dec - 23:38:47 10° SSW 23:44:29 69° ESE 23:50:42 10° NE night (unlit)
